This is the latest recevied weather packets stored in our database for station/object KC1IUC-15. If no packets are shown the sender has not sent any weather packets the latest 10 day(s).
| Time | Temp. | Humidity | Pressure | Rain* | Wind** | Luminosity | Snow |
|---|---|---|---|---|---|---|---|
| 1788562204 | 25° C | 57% | 1008.9 hPa | 0 mm | - | 15 W/m² | - |
| 1788561904 | 25.56° C | 54% | 1008.9 hPa | 0 mm | - | 18 W/m² | - |
| 1788561604 | 25.56° C | 52% | 1008.9 hPa | 0 mm | - | 20 W/m² | - |
| 1788561304 | 25.56° C | 52% | 1008.9 hPa | 0 mm | - | 23 W/m² | - |
| 1788561004 | 26.11° C | 51% | 1008.9 hPa | 0 mm | - | 28 W/m² | - |
| 1788560704 | 26.11° C | 50% | 1008.9 hPa | 0 mm | - | 35 W/m² | - |
| 1788560404 | 26.11° C | 48% | 1008.9 hPa | 0 mm | - | 39 W/m² | - |
| 1788560104 | 26.67° C | 48% | 1008.9 hPa | 0 mm | - | 38 W/m² | - |
| 1788559804 | 26.67° C | 48% | 1008.6 hPa | 0 mm | - | 35 W/m² | - |
| 1788559504 | 26.67° C | 47% | 1008.9 hPa | 0 mm | - | 35 W/m² | - |
| 1788559204 | 26.67° C | 48% | 1008.6 hPa | 0 mm | - | 39 W/m² | - |
| 1788558904 | 26.67° C | 47% | 1008.9 hPa | 0 mm | - | 37 W/m² | - |
| 1788558604 | 27.22° C | 46% | 1008.2 hPa | 0 mm | - | 53 W/m² | - |
| 1788558304 | 27.22° C | 47% | 1008.2 hPa | 0 mm | - | 39 W/m² | - |
| 1788558004 | 27.22° C | 46% | 1008.9 hPa | 0 mm | - | 36 W/m² | - |
| 1788557704 | 27.22° C | 46% | 1008.9 hPa | 0 mm | - | 52 W/m² | - |
| 1788557404 | 27.22° C | 46% | 1008.6 hPa | 0 mm | - | 44 W/m² | - |
| 1788557104 | 27.78° C | 46% | 1008.6 hPa | 0 mm | - | 47 W/m² | - |
| 1788556804 | 27.78° C | 45% | 1008.6 hPa | 0 mm | - | 51 W/m² | - |
| 1788556504 | 27.78° C | 47% | 1008.6 hPa | 0 mm | - | 57 W/m² | - |
| 1788556204 | 27.78° C | 46% | 1008.6 hPa | 0 mm | - | 59 W/m² | - |
| 1788555904 | 27.78° C | 44% | 1008.9 hPa | 0 mm | - | 68 W/m² | - |
| 1788555604 | 27.78° C | 45% | 1008.6 hPa | 0 mm | - | 162 W/m² | - |
| 1788555304 | 27.78° C | 44% | 1008.6 hPa | 0 mm | - | 216 W/m² | - |
| 1788555004 | 27.78° C | 44% | 1008.9 hPa | 0 mm | - | 151 W/m² | - |
* Rain latest hour (hover to see other rain measurements)
** Current wind speed in m/s (hover to see current wind gust speed)